Location: ??????
(33.3472°N, 35.4764°E)
Time: 11:53:04
(UTC+00:00)

ADEOS II - Pass Details

Date: 21 August 2019
Orbit: 799 x 802 km, 98.5° (Epoch: 21 September)

Event Time Altitude Azimuth Distance (km) Brightness Sun altitude
Rises 00:09:50 0° 13° (NNE) 3,311 6.1 -32.3°
Reaches altitude 10° 00:12:11 10° 14° (NNE) 2,377 5.2 -31.9°
Enters shadow 00:16:09 53° 19° (NNE) 977 2.7 -31.4°
